Presure
242 189 239 218 235 220 246 278 247 244 260 239 278 290 192 153 210 146 132 141 119 129 114 121 124 138 148 135 127 135 144 135 156 137 171 159 162 150 145 139 143 127 135 144 148 148 157
200 177 227 243 232 234 203 254 273 262 257 206 240 238 253 158 164 190 163 141 126 120 119 119 123 120 134 136 126 132 145 152 154 174 158 251 167 160 161 155 129 111 130 136 181 142 166
233 234 222 249 208 264 235 260 262 263 263 280 230 260 259 283 142 142 150 141 111 119 116 121 157 150 137 96 127 132 149 152 170 157 150 131 166 175 136 175 371 438 397 401 371 386 323
229 238 240 252 277 282 269 223 268 271 238 230 286 242 252 271 233 149 296 160 272 117 115 129 141 200 133 122 131 155 146 168 170 171 141 146 152 170 238 440 456 504 412 400 376 377 367
239 242 225 253 279 297 288 295 294 324 359 286 244 297 228 274 271 134 299 269 160 130 117 108 134 137 112 131 162 150 162 204 161 284 147 153 160 290 399 336 438 287 275 396 361 373 352
243 245 268 274 299 319 359 330 232 359 304 265 270 241 261 235 239 174 285 274 151 117 124 150 141 140 138 158 144 157 176 142 198 145 155 171 322 388 398 420 451 436 427 385 362 379 339
250 253 276 302 368 353 376 399 387 372 341 344 357 278 253 227 299 279 265 146 224 115 117 149 145 142 147 130 152 162 144 135 156 125 169 250 395 419 414 440 427 396 419 362 348 335 322
239 263 294 349 376 389 387 383 386 400 360 236 342 293 261 301 220 264 254 161 119 144 142 149 138 153 128 154 159 181 139 183 163 166 315 376 381 398 405 450 424 403 386 347 319 307 299
263 286 353 385 388 402 437 440 431 430 391 343 323 256 247 256 248 230 214 146 135 126 135 189 146 123 141 149 213 146 131 159 138 128 134 150 369 399 405 449 399 438 320 295 292 301 301
278 319 387 390 424 460 444 457 454 443 405 295 264 289 278 260 253 251 216 119 119 138 201 144 129 144 154 160 163 149 181 158 139 139 344 167 368 398 392 424 432 374 300 294 292 294 295
309 380 392 398 444 438 450 444 440 455 424 283 256 244 268 232 258 193 166 242 250 199 146 149 145 110 154 165 164 141 125 127 159 122 160 353 366 391 406 396 366 297 291 284 300 297 271
374 393 400 443 413 424 428 440 461 544 309 265 258 243 261 159 150 246 190 122 153 146 133 142 129 143 187 186 160 164 161 139 176 132 319 351 363 424 358 353 349 312 289 271 283 279 261
395 405 419 417 418 422 425 442 487 445 350 291 264 273 209 251 244 240 201 235 137 186 201 142 141 175 165 142 157 136 120 164 173 170 333 139 191 335 344 344 325 301 279 271 270 262 275
421 423 446 402 414 402 434 463 504 381 262 256 260 249 243 233 244 230 216 227 130 174 146 151 152 159 190 163 167 174 112 208 127 336 140 346 247 348 357 343 331 305 288 285 262 266 264
450 455 439 407 431 437 466 433 271 258 278 261 254 242 234 243 159 228 170 229 229 145 153 126 212 211 140 168 148 161 120 120 226 135 139 206 168 371 338 336 336 321 299 281 274 274 271
482 518 409 410 427 447 451 274 272 287 224 261 237 243 211 229 206 219 222 184 133 141 142 168 205 183 140 142 150 174 169 164 256 135 156 311 148 367 362 329 315 319 290 289 274 287 279
577 414 420 429 450 359 280 277 280 213 264 242 244 238 231 229 226 149 182 138 140 145 154 178 221 150 170 166 134 177 174 140 142 200 159 240 213 271 363 313 324 319 304 292 290 283 276
420 431 328 432 313 276 277 256 267 224 250 239 245 234 233 225 187 169 136 132 144 140 160 206 172 187 157 132 147 167 173 152 166 163 148 139 285 344 141 371 302 303 313 301 274 274 275
431 455 418 312 279 292 273 270 255 245 241 248 243 228 214 194 154 136 146 143 142 137 149 140 207 181 188 192 158 196 174 167 178 108 143 155 256 403 371 403 191 307 303 166 291 279 288
255 348 289 283 291 270 278 259 257 243 253 238 235 227 213 141 126 147 180 136 137 140 175 215 144 149 157 165 154 169 136 202 260 188 255 211 202 211 233 223 228 365 217 308 312 293 305
265 269 290 262 282 265 270 236 246 244 239 238 230 223 196 128 131 146 225 145 139 125 144 220 175 177 184 184 164 165 133 166 159 187 150 268 252 231 240 127 280 276 267 221 160 307 300
281 296 292 272 258 266 207 245 228 243 240 230 145 189 149 129 136 130 158 144 135 126 197 139 187 207 204 191 181 162 124 181 182 163 140 198 191 165 131 238 193 244 156 239 273 272 256
297 279 272 280 275 237 243 234 242 240 193 212 212 177 142 150 167 132 133 197 141 150 215 210 207 201 150 161 180 150 193 189 186 196 150 151 151 200 205 138 231 221 269 246 236 144 243
239 226 268 278 207 261 183 193 173 226 234 197 209 196 166 130 147 165 143 140 132 139 142 207 182 203 184 190 142 209 137 157 148 168 201 166 171 122 156 163 212 224 246 228 242 132 147
243 223 232 244 266 258 253 247 221 230 232 201 199 124 207 216 133 134 135 141 156 140 200 207 136 138 198 189 146 198 141 140 173 178 224 149 122 161 140 173 216 140 222 231 142 213 209
222 209 266 209 256 253 248 243 181 198 212 224 212 206 197 129 218 138 228 136 135 140 200 203 207 137 150 195 196 202 142 146 147 180 171 188 173 144 140 211 198 234 212 210 165 267 229
237 228 249 230 252 254 224 242 222 209 193 211 217 169 164 212 134 162 179 220 228 201 180 207 211 152 166 157 139 162 155 192 191 211 172 178 166 166 186 137 163 223 129 135 239 210 154
196 231 263 241 241 251 212 206 205 201 182 216 217 173 124 213 189 227 204 223 228 231 143 211 170 199 195 186 177 185 202 187 184 182 167 171 159 129 195 154 162 150 135 230 228 193 210
188 212 269 235 168 211 217 241 226 225 161 228 223 200 142 206 223 220 230 226 216 230 217 207 198 172 192 147 139 185 178 188 186 182 168 178 149 138 160 159 129 168 137 170 232 231 210
Wind_Speed
75 72 73 58 79 71 61 76 63 67 71 89 65 59 63 57 86 51 42 41 39 39 31 34 32 32 45 27 28 32 36 37 43 29 45 35 33 42 50 51 49 56 65 68 68 72 64
76 83 69 80 64 74 66 65 73 70 60 80 84 64 58 52 51 59 55 42 40 34 36 34 35 30 33 29 30 36 37 44 39 48 37 70 43 37 42 46 53 41 64 52 72 77 65
84 86 82 92 77 84 81 66 70 61 54 57 86 65 67 44 48 41 48 43 33 33 35 32 30 45 35 23 26 29 39 37 45 27 34 45 34 48 49 53 44 66 67 66 69 65 81
81 90 90 96 91 82 77 76 72 70 85 80 46 75 70 40 58 49 24 48 54 37 33 35 35 56 22 28 30 38 35 42 32 35 44 43 41 46 51 14 18 35 70 68 67 66 86
93 98 85 97 99 92 87 87 86 77 54 69 78 44 43 26 52 39 17 37 32 33 32 17 37 28 28 30 37 28 40 46 30 23 40 41 48 39 17 24 21 37 51 68 67 66 80
100 100 111 109 104 96 85 83 79 67 63 57 69 60 44 69 60 38 15 26 25 31 35 39 37 31 32 33 28 36 39 28 46 36 32 51 25 16 15 12 15 21 61 63 62 64 72
106 108 114 111 89 88 84 68 57 56 54 44 47 39 58 50 21 19 28 23 39 36 42 42 35 31 29 20 30 37 26 34 36 29 43 42 21 11 8 13 28 35 58 61 61 70 73
102 117 118 107 93 81 71 63 56 53 60 54 42 36 39 34 37 26 32 23 32 26 34 38 20 25 28 32 33 29 26 38 24 34 21 29 24 14 11 16 31 34 61 69 71 72 79
118 121 111 92 82 80 69 61 57 50 62 53 40 53 56 42 36 28 23 20 24 42 27 23 23 25 17 13 33 19 27 23 16 28 33 22 30 11 8 26 40 39 75 65 65 68 64
122 120 95 86 76 55 41 40 48 49 63 59 58 53 50 43 35 28 30 36 40 35 14 28 17 21 25 30 23 21 38 20 17 21 43 33 26 23 23 23 33 67 73 68 68 69 63
125 100 87 80 56 43 33 25 20 52 66 64 65 56 52 42 33 31 28 22 15 19 28 23 21 22 21 28 14 15 18 15 15 23 25 31 24 19 28 42 61 70 70 61 63 72 74
109 90 77 51 46 37 29 25 27 24 68 71 63 47 46 30 27 27 24 33 25 30 13 20 7 11 21 25 20 22 22 19 18 28 24 29 23 24 44 54 72 84 74 64 73 76 75
97 79 60 36 34 26 22 17 23 30 72 84 66 61 40 43 35 24 19 9 31 13 11 21 7 19 22 9 23 16 19 27 13 12 25 16 14 31 41 54 79 80 67 66 73 70 77
76 61 35 27 25 15 26 21 16 67 67 63 67 57 50 40 32 24 20 9 30 10 22 22 16 16 15 23 14 23 12 27 7 22 5 24 17 28 37 55 76 83 74 77 63 73 74
56 44 14 14 17 22 20 12 76 66 82 65 63 57 46 41 30 23 23 12 10 22 13 10 2 5 3 22 11 20 18 16 22 10 9 27 32 18 43 57 68 84 81 72 72 69 75
49 29 8 9 18 11 14 77 77 88 46 69 56 55 43 39 28 23 18 14 23 21 14 13 7 7 16 6 18 18 28 30 19 9 25 23 21 19 23 52 52 74 53 67 56 73 69
23 16 21 23 20 67 81 85 86 44 69 58 61 51 45 37 29 28 18 25 21 19 13 5 18 14 12 22 16 23 25 17 12 6 31 27 23 18 22 33 57 61 70 66 70 63 61
23 18 31 20 106 80 80 60 76 56 64 54 58 50 45 37 29 23 22 20 20 13 11 15 9 8 20 4 21 24 25 22 6 29 16 11 23 23 10 25 34 46 65 65 29 36 39
20 24 27 102 81 96 75 78 61 62 61 62 54 44 37 31 26 24 23 20 16 9 13 9 17 8 8 8 21 13 21 25 7 8 15 22 33 22 17 14 5 47 45 1 43 27 42
43 20 57 67 90 70 81 68 75 62 64 56 51 45 33 29 19 20 16 15 13 11 2 20 13 15 9 16 17 17 9 26 58 27 58 35 35 42 43 43 18 26 16 30 48 35 48
27 15 70 44 74 68 76 52 67 61 55 53 46 40 30 19 19 21 20 16 13 14 13 22 9 9 3 2 12 19 5 9 28 27 31 63 57 47 53 8 63 57 33 21 23 14 21
17 59 73 57 45 69 39 60 48 62 57 48 24 28 30 19 24 15 21 16 11 6 10 10 13 17 17 12 2 15 6 14 16 17 24 41 33 25 5 46 32 46 28 36 39 38 25
57 39 27 59 59 27 46 38 57 55 35 37 30 20 24 25 17 15 15 10 15 9 16 18 17 16 13 10 12 15 26 18 4 26 24 25 17 41 43 27 51 40 48 41 34 18 30
34 36 35 46 16 45 18 26 25 39 47 27 27 19 24 20 21 16 18 16 12 14 11 15 11 16 8 16 15 30 20 14 20 11 38 8 20 16 24 25 46 52 47 47 44 21 31
23 24 33 10 44 49 48 47 31 44 44 21 18 22 24 22 20 19 16 17 10 17 7 11 7 9 17 17 14 25 17 20 25 7 40 16 21 13 30 26 43 35 53 49 44 45 39
18 21 31 17 42 41 43 46 28 27 27 32 22 20 23 23 18 19 14 17 15 17 4 9 10 10 13 18 22 28 14 17 18 11 4 31 12 23 34 53 37 44 54 54 46 48 52
20 17 13 4 40 43 12 44 26 32 16 21 26 13 20 19 22 15 13 11 8 4 5 8 7 8 11 11 14 16 15 27 30 38 10 19 14 10 35 24 28 46 34 46 54 34 44
8 17 27 32 36 43 30 38 32 25 26 24 22 10 21 18 14 12 9 10 7 5 19 6 1 5 8 11 13 16 25 24 26 27 19 11 15 16 28 21 26 33 49 51 60 48 60
14 14 43 36 30 10 16 40 35 30 30 30 21 18 27 15 14 13 9 9 8 4 7 6 2 11 3 14 15 16 18 24 26 29 25 33 23 22 12 10 41 42 46 46 57 60 65
Wind_Direction
322 294 307 285 300 289 291 295 275 257 277 261 273 271 254 251 260 249 244 242 242 241 249 251 256 266 266 261 257 272 280 264 287 283 289 272 266 245 243 250 258 258 263 256 253 254 250
297 297 307 315 298 286 278 288 299 281 276 260 260 254 256 249 248 255 253 239 238 239 244 249 256 259 263 268 263 271 278 283 289 290 282 285 265 253 256 262 262 262 262 260 253 259 253
321 321 297 315 270 304 286 297 289 280 271 281 260 250 256 264 246 242 250 241 234 234 245 249 267 262 267 243 253 270 284 292 293 274 263 272 286 286 269 284 260 219 212 205 205 201 198
321 321 318 315 310 305 298 283 291 283 259 261 267 255 247 232 249 245 259 252 255 234 244 255 260 273 251 246 275 281 293 293 295 275 270 279 268 294 291 294 223 219 203 201 197 197 193
320 320 313 314 310 306 299 293 290 286 266 264 248 254 236 231 246 234 250 260 247 233 242 261 260 255 253 272 276 290 296 297 288 308 265 271 288 305 300 276 222 244 228 195 192 191 189
322 321 316 314 311 304 290 287 266 274 256 267 248 244 225 255 260 246 216 236 235 231 239 252 259 263 272 272 288 297 299 254 303 296 282 309 312 335 317 283 203 192 192 183 184 185 182
324 320 314 315 303 303 294 285 270 253 247 238 232 217 230 256 158 187 220 217 249 235 245 251 259 265 278 266 294 299 247 263 302 300 322 315 19 346 300 165 172 183 182 168 173 173 175
323 321 316 314 307 301 296 286 273 246 226 245 216 188 205 154 243 199 230 231 225 239 246 254 251 276 258 286 302 294 254 307 324 323 20 30 13 11 20 166 150 169 162 156 158 171 177
322 318 318 312 308 302 289 271 258 248 216 202 189 198 219 211 205 208 210 195 217 239 245 250 263 257 290 301 310 236 265 312 288 303 291 302 43 15 56 145 152 174 151 167 170 169 174
323 320 317 315 311 302 293 277 242 224 207 179 178 168 151 178 189 193 216 219 235 242 239 254 252 274 291 299 325 275 324 328 280 297 36 341 58 49 105 132 152 152 159 163 168 165 154
324 320 321 318 307 303 298 281 262 214 195 157 178 206 150 216 167 192 191 232 265 258 247 260 271 266 301 307 322 226 278 277 346 327 3 37 48 69 123 137 149 160 161 161 153 161 177
323 321 321 313 316 309 311 290 286 246 163 172 161 196 159 162 167 181 191 223 224 235 202 261 247 300 307 318 351 314 315 309 4 296 64 39 65 82 139 147 153 156 161 174 152 166 185
323 319 318 310 318 312 313 296 280 191 158 143 154 143 169 162 170 171 177 206 228 227 295 263 257 296 310 219 349 248 278 337 3 319 50 319 29 137 146 152 158 161 169 176 167 183 174
319 315 313 318 328 306 304 281 263 154 168 169 137 159 163 177 142 163 186 132 233 222 251 264 287 303 307 326 276 336 290 348 301 57 323 94 47 145 152 160 165 170 174 167 187 187 185
318 310 295 338 348 331 315 311 155 167 147 147 151 157 164 140 193 159 167 113 81 236 258 196 79 4 91 319 16 355 263 308 43 288 304 31 34 123 165 168 168 177 176 183 187 196 185
315 309 23 18 357 322 123 148 152 142 165 144 160 147 157 153 155 143 136 186 234 243 259 272 81 329 287 347 14 320 348 359 36 261 18 60 49 118 165 175 177 174 180 184 195 194 196
327 67 56 36 15 132 145 144 143 171 143 153 142 152 150 143 142 182 160 215 227 240 265 279 64 339 304 322 258 334 339 334 291 81 11 54 39 74 147 178 178 177 178 182 191 200 206
66 59 104 77 131 145 144 160 144 148 146 150 141 145 137 138 162 176 202 228 223 251 251 96 4 34 321 186 351 333 333 12 41 353 16 28 31 81 54 170 184 185 178 185 211 219 226
63 41 119 132 143 137 147 142 147 146 148 138 138 147 154 157 169 196 184 205 225 259 274 320 52 20 42 14 336 27 329 337 32 300 4 42 42 80 92 116 131 195 198 15 217 235 238
39 105 131 141 137 148 136 140 132 142 135 140 137 139 151 167 208 176 153 232 231 260 353 68 333 331 1 317 343 351 345 47 56 25 58 36 43 44 62 61 11 189 206 214 219 234 236
37 107 138 134 140 143 134 143 140 141 142 138 139 138 152 199 205 186 109 205 235 254 269 58 24 360 213 222 334 1 344 332 333 49 349 57 59 60 56 358 67 68 66 71 3 234 251
59 142 142 149 158 140 144 141 152 142 138 142 191 154 167 203 204 214 163 200 247 260 80 301 40 45 45 39 282 347 204 55 18 317 351 38 21 25 17 50 21 58 8 54 65 64 55
145 117 131 148 145 152 146 152 147 140 154 153 151 159 188 177 176 209 226 128 228 257 72 68 60 52 300 313 7 319 24 20 58 45 325 322 5 22 30 352 38 41 50 44 32 339 46
32 24 138 156 76 147 155 169 164 149 143 141 156 154 170 224 175 178 204 219 249 257 266 57 36 46 12 27 324 25 332 320 351 277 30 341 353 318 335 14 33 27 35 27 42 347 342
331 34 349 359 155 153 154 149 165 149 145 156 154 222 150 145 223 228 227 224 244 255 81 64 317 318 30 18 313 24 324 324 27 20 37 286 321 356 327 6 28 340 18 19 335 8 24
359 58 167 50 167 158 157 151 152 146 168 155 167 170 163 238 139 222 132 239 254 261 114 77 56 296 296 16 18 19 329 333 317 8 359 17 359 303 314 15 15 19 13 9 343 29 8
293 300 230 110 178 158 217 163 178 160 150 184 166 183 210 161 231 223 205 148 138 191 253 107 73 311 314 335 317 347 335 6 7 21 327 6 318 323 345 304 14 8 339 329 9 12 342
317 297 206 206 193 169 185 169 178 181 181 191 179 167 246 165 191 148 193 155 146 142 273 123 322 42 14 1 355 360 12 0 354 353 339 331 228 289 355 331 12 3 322 8 359 351 356
278 235 192 219 197 176 241 177 183 188 196 169 186 178 226 181 161 167 168 170 176 161 189 166 163 295 12 312 314 351 347 357 353 348 343 351 244 289 349 343 317 360 320 357 2 358 356